DW7764 Weather Reports


Display with metric or nautical units.
time (UTC)temp
F
wind
direction
speed
MPH
gust
MPH
rain 1hr
in
rain 24hr
in
rain mn
in
humidity
%
barometer
mb
20260831121517 86 108 2.0 12.0 0.00 0.00 0.00 60 1022.8
20260831120019 85 120 2.0 8.0 0.00 0.00 0.00 62 1023.0
20260831114517 85 148 0.0 9.0 0.00 0.00 0.00 61 1023.0
20260831113016 85 162 4.0 12.0 0.00 0.00 0.00 60 1023.0
20260831111515 85 146 2.0 9.0 0.00 0.00 0.00 57 1023.0
20260831110021 87 122 1.0 5.0 0.00 0.00 0.00 55 1023.1
20260831104514 86 98 0.0 7.0 0.00 0.00 0.00 56 1023.2
20260831103013 85 135 2.0 5.0 0.00 0.00 0.00 57 1023.2
20260831101511 85 193 5.0 8.0 0.00 0.00 0.00 55 1023.3
20260831100013 85 72 1.0 7.0 0.00 0.00 0.00 57 1023.4
20260831094509 84 207 0.0 7.0 0.00 0.00 0.00 59 1023.4
20260831093009 84 118 0.0 6.0 0.00 0.00 0.00 60 1023.5
20260831091503 82 276 2.0 7.0 0.00 0.00 0.00 62 1023.5
20260831090104 81 323 0.0 5.0 0.00 0.00 0.00 64 1023.5
20260831084602 80 274 0.0 6.0 0.00 0.00 0.00 68 1023.5
20260831083055 80 280 0.0 5.0 0.00 0.00 0.00 68 1023.4
20260831081558 79 281 0.0 3.0 0.00 0.00 0.00 64 1023.3
20260831080048 78 281 0.0 0.0 0.00 0.00 0.00 63 1023.3
20260831074545 75 281 0.0 0.0 0.00 0.00 0.00 63 1023.3
20260831073043 72 281 0.0 0.0 0.00 0.00 0.00 59 1023.2
20260831071600 70 281 0.0 0.0 0.00 0.00 0.00 61 1023.1
20260831070041 69 281 0.0 0.0 0.00 0.00 0.00 64 1023.1
20260831064537 67 281 0.0 1.0 0.00 0.00 0.00 66 1023.0
20260831063037 65 281 0.0 0.0 0.00 0.00 0.00 73 1022.8
20260831061533 64 281 0.0 0.0 0.00 0.00 0.00 73 1022.6
20260831060033 62 281 0.0 0.0 0.00 0.00 0.00 74 1022.4
20260831054528 62 281 0.0 0.0 0.00 0.00 0.00 75 1022.2
20260831053042 62 281 0.0 0.0 0.00 0.00 0.00 76 1022.1
20260831051521 62 281 0.0 0.0 0.00 0.00 0.00 73 1021.8
20260831050019 62 281 0.0 0.0 0.00 0.00 0.00 73 1021.8
20260831044519 62 281 0.0 0.0 0.00 0.00 0.00 74 1021.7
20260831043017 62 281 0.0 1.0 0.00 0.00 0.00 73 1021.7
20260831041516 62 281 0.0 0.0 0.00 0.00 0.00 74 1021.7
20260831040016 62 281 0.0 0.0 0.00 0.00 0.00 76 1021.7
20260831034513 62 281 0.0 0.0 0.00 0.00 0.00 76 1021.6
20260831033027 62 281 0.0 0.0 0.00 0.00 0.00 76 1021.7
20260831031510 63 281 0.0 1.0 0.00 0.00 0.00 77 1021.7
20260831030009 63 281 0.0 0.0 0.00 0.00 0.00 78 1021.7
20260831024508 63 281 0.0 1.0 0.00 0.00 0.00 78 1021.5
20260831023005 64 281 0.0 0.0 0.00 0.00 0.00 80 1021.5
20260831021505 64 281 0.0 2.0 0.00 0.00 0.00 80 1021.5
20260831020004 64 281 0.0 0.0 0.00 0.00 0.00 82 1021.4
20260831014558 65 281 0.0 0.0 0.00 0.00 0.00 83 1021.3
20260831013056 66 281 0.0 0.0 0.00 0.00 0.00 84 1021.3
20260831011603 67 281 0.0 0.0 0.00 0.00 0.00 87 1021.2
20260831010051 67 281 0.0 0.0 0.00 0.00 0.00 86 1021.2
20260831004551 68 281 0.0 0.0 0.00 0.00 0.00 86 1021.1
20260831003047 68 281 0.0 0.0 0.00 0.00 0.00 86 1021.1
20260831001549 69 281 0.0 0.0 0.00 0.00 0.00 85 1021.0
20260831000041 70 281 0.0 0.0 0.00 0.00 0.00 81 1020.9
20260830234545 71 281 0.0 1.0 0.00 0.00 0.00 82 1021.0
20260830233040 72 281 0.0 0.0 0.00 0.00 0.00 81 1021.1
20260830231538 72 281 0.0 3.0 0.00 0.00 0.00 81 1021.1
20260830230036 71 316 0.0 1.0 0.00 0.00 0.00 79 1021.1
20260830224540 72 316 0.0 1.0 0.00 0.00 0.00 78 1021.1
20260830223031 72 316 0.0 2.0 0.00 0.00 0.00 75 1021.1
20260830221531 73 291 0.0 1.0 0.00 0.00 0.00 72 1021.1
20260830220032 73 292 0.0 1.0 0.00 0.00 0.00 71 1021.0
20260830214534 73 292 0.0 2.0 0.00 0.00 0.00 70 1020.9
20260830213041 72 114 0.0 1.0 0.00 0.00 0.00 69 1020.9
20260830211545 72 114 0.0 0.0 0.00 0.00 0.00 67 1020.8
20260830210046 72 114 0.0 0.0 0.00 0.00 0.00 62 1020.8
20260830204525 73 114 0.0 0.0 0.00 0.00 0.00 58 1020.8
20260830203038 73 115 0.0 0.0 0.00 0.00 0.00 56 1020.7
20260830201524 73 114 0.0 0.0 0.00 0.00 0.00 53 1020.6
20260830200023 73 114 0.0 0.0 0.00 0.00 0.00 52 1020.6
20260830194523 74 114 0.0 0.0 0.00 0.00 0.00 50 1020.5
20260830193023 76 114 0.0 0.0 0.00 0.00 0.00 47 1020.4
20260830191527 77 115 0.0 0.0 0.00 0.00 0.00 44 1020.2
20260830190021 78 115 0.0 0.0 0.00 0.00 0.00 42 1019.9
20260830184520 80 115 0.0 0.0 0.00 0.00 0.00 40 1019.7
20260830183017 81 113 0.0 1.0 0.00 0.00 0.00 38 1019.7
20260830181517 82 110 0.0 2.0 0.00 0.00 0.00 37 1019.6
20260830180024 85 150 0.0 5.0 0.00 0.00 0.00 35 1019.5
20260830174517 85 145 0.0 4.0 0.00 0.00 0.00 37 1019.4
20260830173012 86 91 5.0 9.0 0.00 0.00 0.00 38 1019.4
20260830171509 86 115 4.0 10.0 0.00 0.00 0.00 37 1019.3
20260830170011 86 176 5.0 13.0 0.00 0.00 0.00 37 1019.3
20260830164502 87 191 5.0 13.0 0.00 0.00 0.00 37 1019.1
20260830163005 88 148 3.0 11.0 0.00 0.00 0.00 36 1019.1
20260830161620 88 150 5.0 14.0 0.00 0.00 0.00 41 1019.1
20260830160100 88 177 4.0 10.0 0.00 0.00 0.00 38 1019.0
20260830154559 88 117 3.0 13.0 0.00 0.00 0.00 40 1019.1
20260830153102 88 101 6.0 13.0 0.00 0.00 0.00 39 1019.2
20260830151603 89 125 7.0 13.0 0.00 0.00 0.00 38 1019.2
20260830150054 89 142 4.0 11.0 0.00 0.00 0.00 37 1019.3
20260830144600 89 99 6.0 12.0 0.00 0.00 0.00 33 1019.4
20260830143104 89 186 6.0 12.0 0.00 0.00 0.00 34 1019.6
20260830141549 89 153 3.0 9.0 0.00 0.00 0.00 36 1019.7
20260830140049 89 113 7.0 13.0 0.00 0.00 0.00 37 1019.9
20260830134549 89 161 5.0 12.0 0.00 0.00 0.00 39 1020.0
20260830133049 89 208 6.0 16.0 0.00 0.00 0.00 43 1020.1
20260830131545 89 101 8.0 14.0 0.00 0.00 0.00 40 1020.1
20260830130055 90 172 5.0 15.0 0.00 0.00 0.00 40 1020.2
20260830124543 91 131 6.0 12.0 0.00 0.00 0.00 39 1020.4
20260830123041 91 145 4.0 10.0 0.00 0.00 0.00 38 1020.5